Fairbanks, AK

7:09 PM AKST on February 23, 2017 (GMT -0900)
Fairbanks International

Weather History for PAFA - January, 2014

Change the Weather History Date:

Sunday, January 19, 2014

  Actual Average Record
Temperature  
Mean Temperature 8 °F -9 °F  
Max Temperature 17 °F 0 °F 42 °F (1981)
Min Temperature -2 °F -16 °F -64 °F (1906)
Degree Days  
Heating Degree Days 57 74  
Month to date heating degree days 1216 1390  
Since 1 July heating degree days 6900 7662  
Cooling Degree Days 0 0  
Month to date cooling degree days 0 0  
Year to date cooling degree days 0 0  
Moisture  
Dew Point 1 °F    
Average Humidity 76    
Maximum Humidity 84    
Minimum Humidity 62    
Precipitation  
Precipitation 0.00 in 0.02 in 1.01 in (1937)
Month to date precipitation 0.14 0.38  
Year to date precipitation 0.14 0.38  
Snow  
Snow 0.00 in 0.30 in 15.50 in (1937)
Month to date snowfall 2.5 6.7  
Since 1 July snowfall 35.8 44.6  
Snow Depth 18.00 in    
Sea Level Pressure  
Sea Level Pressure 29.94 in    
Wind  
Wind Speed 3 mph (NE)    
Max Wind Speed 7 mph    
Max Gust Speed -    
Visibility 10 miles    
Events      
T = Trace of Precipitation, MM = Missing Value Source: NWS Daily Summary

Daily Weather History Graph

Daily Weather History Graph

Search for Another Location

Airport or City:

Trip Planner

Search our weather history database for the weather conditions in past years. The results will help you decide how hot, cold, wet, or windy it might be!

Date:

Astronomy

Jan. 19, 2014 Rise Set
Actual Time 10:15 AM AKST 3:49 PM AKST
Civil Twilight 9:08 AM AKST 4:57 PM AKST
Nautical Twilight 8:03 AM AKST 6:02 PM AKST
Astronomical Twilight 7:04 AM AKST 7:00 PM AKST
Moon 9:29 PM AKST (1/19) 10:07 AM AKST (1/19)
Length of Visible Light 7h 49m
Length of Day
5h 34m
Waning Gibbous, 88% of the Moon is Illuminated
Jan 19
Waning Gibbous
Jan 23
Last Quarter
Jan 30
New
Feb 6
First Quarter
Feb 14
Full

Hourly Weather History & Observations

Time (AKST) Temp. Windchill Dew Point Humidity Pressure Visibility Wind Dir Wind Speed Gust Speed Precip Events Conditions
12:53 AM 10.0 °F 3.6 °F 3.9 °F 76% 29.81 in 10.0 mi NNW 3.5 mph - N/A   Overcast
1:53 AM 10.9 °F 2.9 °F 3.9 °F 73% 29.83 in 10.0 mi North 4.6 mph - N/A   Overcast
3:53 AM 10.9 °F - 3.9 °F 73% 29.90 in 10.0 mi Calm Calm - N/A   Overcast
4:53 AM 9.0 °F - 3.9 °F 80% 29.92 in 10.0 mi Calm Calm - N/A   Scattered Clouds
5:53 AM 9.0 °F 0.6 °F 3.9 °F 80% 29.93 in 10.0 mi ENE 4.6 mph - N/A   Scattered Clouds
6:53 AM 5.0 °F -2.1 °F 1.0 °F 84% 29.95 in 10.0 mi North 3.5 mph - N/A   Scattered Clouds
7:53 AM -0.0 °F -7.9 °F -4.0 °F 83% 29.95 in 10.0 mi NNE 3.5 mph - N/A   Scattered Clouds
8:53 AM -0.9 °F -11.0 °F -6.0 °F 79% 29.96 in 10.0 mi NNE 4.6 mph - N/A   Partly Cloudy
9:53 AM 3.9 °F -3.4 °F -0.9 °F 80% 29.98 in 10.0 mi NNE 3.5 mph - N/A   Mostly Cloudy
10:53 AM 3.9 °F -3.4 °F -2.0 °F 76% 30.00 in 10.0 mi ESE 3.5 mph - N/A   Mostly Cloudy
11:53 AM 6.1 °F -5.6 °F -0.0 °F 76% 30.00 in 10.0 mi ENE 6.9 mph - N/A   Scattered Clouds
12:53 PM 1.9 °F - -2.9 °F 80% 30.00 in 10.0 mi Calm Calm - N/A   Scattered Clouds
1:53 PM 3.9 °F - -2.0 °F 76% 29.99 in 10.0 mi Calm Calm - N/A   Mostly Cloudy
2:53 PM 3.0 °F - -2.9 °F 76% 29.98 in 10.0 mi Calm Calm - N/A   Mostly Cloudy
3:53 PM 1.9 °F - -2.9 °F 80% 29.97 in 10.0 mi Calm Calm - N/A   Mostly Cloudy
4:53 PM -0.0 °F - -7.1 °F 72% 29.97 in 10.0 mi Calm Calm - N/A   Mostly Cloudy
5:53 PM 1.9 °F - -4.0 °F 76% 29.95 in 10.0 mi Calm Calm - N/A   Mostly Cloudy
6:53 PM 8.1 °F 1.4 °F 1.9 °F 76% 29.94 in 10.0 mi East 3.5 mph - N/A   Mostly Cloudy
7:53 PM 12.9 °F - 8.1 °F 81% 29.93 in 10.0 mi Calm Calm - N/A   Mostly Cloudy
8:53 PM 12.9 °F 2.6 °F 8.1 °F 81% 29.91 in 10.0 mi NE 6.9 mph - N/A   Mostly Cloudy
9:53 PM 15.1 °F 5.2 °F 9.0 °F 77% 29.90 in 10.0 mi NE 6.9 mph - N/A   Mostly Cloudy
10:53 PM 16.0 °F 7.4 °F 9.0 °F 74% 29.90 in 10.0 mi ENE 5.8 mph - N/A   Scattered Clouds
11:53 PM 8.1 °F - 1.9 °F 76% 29.91 in 10.0 mi Calm Calm - N/A   Scattered Clouds